Flag for Slovakia Weather past 2 weeks in Prešov, Slovakia

Now
70 °F

Sunny.


Feels Like: 70 °F
Forecast: 44 / 62 °F
Wind: No wind

Location: Kosice - Barca


UV Index: 3 (Moderate)

Visibility: 10 mi


Pressure: 29.71 "Hg

Humidity: 38%

Dew point: 43 °F

Location of PrešovLocation

Historic Weather in Prešov

°F

Prešov temperature yesterday

Maximum temperature yesterday: 55 °F (at 3:30 PM)
Minimum temperature yesterday: 41 °F (at 3:30 AM)
Average temperature yesterday: 48 °F

Past Weeks' High & Low Weather Summary

 TemperatureHumidityPressure
High70 °F (Apr 18, 2:00 PM)100% (Apr 6, 3:00 AM)30.18 "Hg (Apr 6, 3:00 AM)
Low30 °F (Apr 10, 6:00 AM)35% (Apr 9, 5:30 PM)29.68 "Hg (Apr 14, 3:30 PM)
Average49 °F73%29.97 "Hg
* Reported Apr 3 3:00 PM — Apr 18 3:30 PM, Prešov, Weather by CustomWeather, © 2014

Note: Actual official high and low records may vary slightly from our data, if they occured in-between our weather recording intervals... More about our weather records

Advertising

Historic Weather Conditions — Data for Previous 24 hours

 ConditionsComfort  
Time TempWeatherWind HumidityBarometerVisibility
3:30 PM
Apr 18
70 °FSunny.No wind38%29.71 "Hg10 mi
3:00 PM70 °FPassing clouds.3 mph40%29.74 "HgN/A
2:30 PM68 °FPassing clouds.8 mph40%29.74 "HgN/A
2:00 PM70 °FPassing clouds.6 mph35%29.74 "HgN/A
1:30 PM68 °FPassing clouds.6 mph40%29.74 "HgN/A
1:00 PM68 °FSunny.2 mph43%29.74 "Hg10 mi
12:30 PM66 °FSunny.1 mph46%29.77 "Hg10 mi
12:00 PM63 °FPassing clouds.3 mph52%29.77 "HgN/A
11:30 AM63 °FSunny.3 mph49%29.77 "Hg10 mi
11:00 AM61 °FPassing clouds.3 mph48%29.80 "HgN/A
10:30 AM61 °FPassing clouds.5 mph52%29.80 "HgN/A
10:00 AM59 °FSunny.7 mph51%29.80 "Hg10 mi
9:30 AM59 °FSunny.8 mph55%29.80 "Hg10 mi
9:00 AM55 °FSunny.8 mph63%29.83 "Hg10 mi
8:30 AM52 °FSunny.8 mph67%29.83 "Hg10 mi
8:00 AM50 °FSunny.7 mph71%29.83 "Hg10 mi
7:30 AM48 °FSunny.5 mph76%29.83 "Hg10 mi
7:00 AM45 °FSunny.6 mph81%29.83 "Hg10 mi
6:30 AM45 °FClear.6 mph81%29.86 "Hg10 mi
6:00 AM43 °FClear.8 mph87%29.86 "Hg10 mi
5:30 AM43 °FClear.7 mph81%29.86 "Hg10 mi
5:00 AM45 °FClear.6 mph81%29.86 "Hg10 mi
4:30 AM45 °FClear.5 mph81%29.86 "Hg10 mi
4:00 AM45 °FClear.6 mph81%29.89 "Hg10 mi
3:30 AM45 °FClear.6 mph81%29.89 "Hg10 mi
3:00 AM46 °FClear.5 mph76%29.89 "Hg10 mi
2:30 AM46 °FClear.5 mph76%29.92 "Hg10 mi
2:00 AM48 °FClear.8 mph71%29.92 "Hg10 mi
1:30 AM48 °FClear.7 mph71%29.92 "Hg10 mi
1:00 AM48 °FClear.8 mph71%29.95 "Hg10 mi
12:30 AM48 °FClear.8 mph71%29.95 "Hg10 mi
12:00 AM50 °FClear.7 mph67%29.95 "Hg10 mi
11:30 PM
Apr 17
50 °FClear.6 mph67%29.98 "Hg10 mi
11:00 PM50 °FClear.12 mph67%29.98 "Hg10 mi
10:30 PM50 °FClear.13 mph67%29.98 "Hg10 mi
10:00 PM50 °FClear.14 mph67%29.98 "Hg10 mi
9:30 PM50 °FClear.14 mph67%30.01 "Hg10 mi
9:00 PM50 °FClear.15 mph62%30.01 "Hg10 mi
8:30 PM50 °FClear.14 mph62%30.01 "Hg10 mi
8:00 PM52 °FSunny.16 mph62%30.01 "Hg10 mi
7:00 PM54 °FSunny.20 mph54%30.01 "Hg10 mi
6:30 PM54 °FSunny.20 mph54%30.01 "Hg10 mi
6:00 PM54 °FSunny.20 mph58%30.01 "Hg10 mi
5:30 PM54 °FSunny.18 mph54%30.04 "Hg10 mi
5:00 PM55 °FSunny.20 mph55%30.04 "Hg10 mi
4:30 PM55 °FSunny.21 mph51%30.04 "Hg10 mi
4:00 PM55 °FSunny.23 mph55%30.04 "Hg10 mi
Weather by CustomWeather, © 2014

See weather overview